www.pogodaiklimat.ru

Погода и климат >> Архив погоды >> Швейцария >> Мёлин


ПОГОДА в Мёлине

  • Прогноз погоды в Мёлине
  • Монитор погоды в Мёлине

АРХИВ ПОГОДЫ в Мёлине

Время (UTC), дата Ветер
(напр.,м/с)
 
Видим.   Явления Облачность Т
(С)
Тd
(С)
f
(%)
Тe
(С)
Тes
(С)
Комфортность P
(гПа)
Po
(гПа)
Тmin
(С)
Tmax
(С)
R
(мм)
R24
(мм)
S
(см)
01 13.07 СЗ 2
{3}
н/о н/о +14.5 +13.8 96 +14 +14 1016.7 976.3 2
02 13.07 С 1
{3}
н/о н/о +14.1 +13.7 97 +14 +14 1016.9 976.5
03 13.07 З 1
{3}
н/о н/о +13.9 +13.6 98 +15 +15 1017.4 976.9
04 13.07 Ю 1
{2}
н/о н/о +12.8 +12.6 99 +13 +13 1018.2 977.5
05 13.07 С 1
{1}
н/о н/о +13.7 +13.5 99 +15 +15 1018.2 977.7
06 13.07 СЗ 2
{3}
н/о н/о +15.1 +14.2 94 +15 +15 1018.3 978.0 +12.8
07 13.07 З 2
{3}
н/о н/о +16.6 +14.4 87 +17 +17 1018.5 978.4
08 13.07 СВ 1
{3}
н/о н/о +18.0 +13.0 73 +20 +20 1018.5 978.6
09 13.07 ЮЗ 1
{3}
н/о н/о +19.2 +11.6 61 +21 +21 комфорт 1018.3 978.5
10 13.07 СЗ 3
{6}
н/о н/о +20.3 +10.7 54 +22 +22 комфорт 1018.0 978.4
11 13.07 СЗ 3
{6}
н/о н/о +21.3 +11.0 52 +23 +23 комфорт 1017.6 978.2
12 13.07 СЗ 4
{7}
н/о н/о +21.9 +10.5 48 +24 +24 комфорт 1017.3 978.0
13 13.07 СЗ 3
{7}
н/о н/о +21.2 +10.9 52 +23 +23 комфорт 1017.2 977.8
14 13.07 СЗ 4
{7}
н/о н/о +22.0 +11.5 51 +24 +24 комфорт 1017.0 977.7
15 13.07 СЗ 3
{7}
н/о н/о +21.8 +11.0 50 +24 +24 комфорт 1016.8 977.5
16 13.07 С 2
{6}
н/о н/о +22.1 +10.7 48 +24 +24 комфорт 1016.4 977.1
17 13.07 СЗ 4
{6}
н/о н/о +21.5 +10.2 49 +23 +23 комфорт 1016.6 977.2
18 13.07 СЗ 2
{7}
н/о н/о +20.9 +11.1 53 +24 +24 комфорт 1016.8 977.3 +22.6
19 13.07 СЗ 1
{3}
н/о н/о +19.2 +10.7 58 +21 +21 комфорт 1017.2 977.5
20 13.07 С 1
{2}
н/о н/о +16.3 +12.3 77 +17 +17 1018.2 978.0
21 13.07 ЮЗ 1
{3}
н/о н/о +14.7 +11.9 83 +16 +16 1018.6 978.2
22 13.07 СВ 2
{3}
н/о н/о +14.7 +11.6 82 +15 +15 1018.5 978.1
23 13.07 СВ 1
{3}
н/о н/о +12.9 +11.2 89 +14 +14 1018.6 977.9
00 14.07 ЮВ 1
{3}
н/о н/о +11.8 +10.7 93 +12 +12 1018.4 977.6
01 14.07 СВ 1
{2}
н/о н/о +11.3 +10.4 94 +12 +12 1018.2 977.3
02 14.07 СВ 1
{2}
н/о н/о +11.0 +10.2 95 +11 +11 1018.0 977.1
03 14.07 СВ 1
{2}
н/о н/о +10.2 +9.6 96 +11 +11 1017.7 976.7
04 14.07 В 1
{1}
н/о н/о +10.0 +9.5 97 +10 +10 1017.4 976.4
05 14.07 В 1
{1}
н/о н/о +11.3 +10.8 97 +11 +11 1017.1 976.3
06 14.07 В 1
{2}
н/о н/о +13.1 +11.3 89 +13 +13 1016.8 976.2 +9.9
07 14.07 ЮВ 1
{2}
н/о н/о +15.7 +11.4 76 +17 +17 1016.4 976.2
08 14.07 В 1
{3}
н/о н/о +18.0 +12.0 68 +20 +20 1015.9 976.1
09 14.07 ЮВ 2
{5}
н/о н/о +20.6 +12.7 61 +24 +24 комфорт 1015.0 975.6
10 14.07 штиль 0
{5}
н/о н/о +20.8 +12.6 59 +23 +23 комфорт 1014.7 975.3
11 14.07 штиль 0
{2}
н/о н/о +20.8 +13.1 61 +23 +23 комфорт 1014.4 975.0
12 14.07 С 2
{5}
н/о н/о +22.1 +13.3 57 +25 +25 комфорт 1013.6 974.4
13 14.07 СЗ 2
{5}
н/о н/о +22.6 +12.1 51 +25 +25 комфорт 1012.8 973.7
14 14.07 С 5
{10}
н/о н/о +21.8 +12.8 57 +24 +24 комфорт 1012.7 973.5
15 14.07 С 3
{10}
н/о н/о +18.9 +11.9 64 +20 +20 1013.4 973.8
16 14.07 Ю 2
{8}
н/о н/о +18.8 +11.9 64 +20 +20 1013.7 974.1
17 14.07 штиль 0
{7}
н/о н/о +17.3 +11.3 68 +17 +17 1014.6 974.7
18 14.07 штиль 0
{10}
н/о н/о +16.3 +12.0 76 +16 +16 1015.3 975.3 +23.6
19 14.07 штиль 0
{1}
н/о н/о +15.4 +12.4 82 +15 +15 1015.9 975.7
20 14.07 штиль 0
{4}
н/о н/о +14.8 +13.0 89 +14 +14 1016.1 975.8
21 14.07 З 3
{5}
н/о н/о +14.2 +13.5 96 +13 +13 1016.4 976.0 0.4
22 14.07 СЗ 2
{3}
н/о н/о +13.8 +13.1 96 +13 +13 1016.7 976.2 5
23 14.07 В 1
{2}
н/о н/о +13.8 +13.4 97 +15 +15 1016.4 976.0 5
00 15.07 З 1
{5}
н/о н/о +13.8 +13.4 97 +14 +14 1016.0 975.6 1
01 15.07 штиль 0
{2}
н/о н/о +13.9 +13.5 97 +13 +13 1015.5 975.1 0.1
02 15.07 штиль 0
{1}
н/о н/о +14.1 +13.7 97 +14 +14 1015.1 974.7
03 15.07 штиль 0
{2}
н/о н/о +14.1 +13.7 97 +14 +14 1015.1 974.7
04 15.07 З 1
{4}
н/о н/о +13.8 +13.5 98 +15 +15 1015.1 974.7
05 15.07 штиль 0
{3}
н/о н/о +13.6 +13.1 97 +13 +13 1015.4 975.0
06 15.07 З 3
{6}
н/о н/о +13.4 +12.6 95 +12 +12 1016.0 975.5 +13.4
07 15.07 З 3
{5}
н/о н/о +13.9 +12.7 92 +13 +13 1016.2 975.8
08 15.07 ЮЗ 1
{4}
н/о н/о +14.6 +13.0 90 +15 +15 1016.4 976.1
09 15.07 З 3
{5}
н/о н/о +15.4 +12.9 85 +15 +15 1016.6 976.4
10 15.07 З 2
{4}
н/о н/о +16.4 +13.5 83 +16 +16 1016.4 976.3
11 15.07 штиль 0
{4}
н/о н/о +17.7 +13.6 77 +18 +18 1016.2 976.3
12 15.07 З 2
{5}
н/о н/о +19.4 +13.9 70 +21 +21 комфорт 1015.5 975.9
13 15.07 З 2
{5}
н/о н/о +20.4 +14.1 67 +23 +23 комфорт 1015.2 975.7
14 15.07 СЗ 3
{5}
н/о н/о +21.8 +14.4 63 +25 +25 комфорт 1014.9 975.6
15 15.07 СЗ 2
{5}
н/о н/о +21.3 +13.9 63 +24 +24 комфорт 1014.8 975.5
16 15.07 СЗ 2
{5}
н/о н/о +22.4 +13.8 58 +26 +26 жарко 1014.4 975.2
17 15.07 СЗ 2
{5}
н/о н/о +22.3 +13.6 58 +25 +25 комфорт 1014.3 975.1
18 15.07 СЗ 3
{5}
н/о н/о +21.2 +14.0 63 +24 +24 комфорт 1014.7 975.4 +22.6
19 15.07 СЗ 2
{4}
н/о н/о +20.1 +13.7 67 +23 +23 комфорт 1015.3 975.8
20 15.07 штиль 0
{2}
н/о н/о +17.7 +14.0 79 +18 +18 1016.2 976.3
21 15.07 ЮЗ 1
{4}
н/о н/о +16.3 +13.8 85 +17 +17 1016.9 976.8
22 15.07 ЮЗ 1
{2}
н/о н/о +14.6 +13.5 93 +16 +16 1017.6 977.2
23 15.07 штиль 0
{1}
н/о н/о +13.7 +13.1 96 +13 +13 1018.0 977.5
00 16.07 штиль 0
{4}
н/о н/о +13.1 +12.7 97 +13 +13 1018.2 977.6
01 16.07 штиль 0
{1}
н/о н/о +12.4 +12.1 98 +12 +12 1018.4 977.7
02 16.07 штиль 0
{1}
н/о н/о +12.0 +11.7 98 +11 +11 1018.7 977.9
03 16.07 штиль 0
{1}
н/о н/о +11.6 +11.4 99 +11 +11 1018.8 977.9
04 16.07 штиль 0
{1}
н/о н/о +10.6 +10.4 99 +10 +10 1018.9 977.9
05 16.07 З 1
{1}
н/о н/о +12.1 +11.9 99 +13 +13 1018.9 978.1
06 16.07 З 1
{2}
н/о н/о +13.6 +12.4 92 +14 +14 1019.0 978.4 +10.6
07 16.07 З 2
{4}
н/о н/о +15.1 +12.6 85 +15 +15 1018.7 978.3
08 16.07 З 1
{3}
н/о н/о +16.7 +13.3 80 +18 +18 1018.3 978.2
09 16.07 ЮЗ 1
{4}
н/о н/о +18.8 +12.9 69 +21 +21 комфорт 1017.6 977.8
10 16.07 ЮЗ 2
{3}
н/о н/о +21.0 +13.8 63 +25 +25 комфорт 1017.2 977.7
11 16.07 З 2
{5}
н/о н/о +22.5 +13.7 57 +26 +26 жарко 1016.6 977.4
12 16.07 З 2
{5}
н/о н/о +24.0 +14.3 55 +27 +27 жарко 1015.8 976.8
13 16.07 З 2
{5}
н/о н/о +24.8 +13.2 48 +27 +27 жарко 1015.2 976.3
14 16.07 СЗ 3
{5}
н/о н/о +25.1 +11.5 43 +27 +27 жарко 1014.8 976.0
15 16.07 СЗ 2
{5}
н/о н/о +25.5 +9.3 36 +26 +26 жарко 1014.5 975.8
16 16.07 СЗ 2
{4}
н/о н/о +25.5 +7.8 32 +26 +26 жарко 1014.2 975.5
17 16.07 З 2
{4}
н/о н/о +25.5 +8.3 34 +26 +26 жарко 1014.0 975.3
18 16.07 З 2
{5}
н/о н/о +23.4 +12.5 50 +26 +26 жарко 1014.2 975.2 +25.8
19 16.07 З 2
{3}
н/о н/о +21.4 +13.8 62 +24 +24 комфорт 1014.7 975.4
20 16.07 В 1
{2}
н/о н/о +17.4 +14.8 85 +18 +18 1015.6 975.7
21 16.07 В 1
{3}
н/о н/о +16.1 +14.2 88 +17 +17 1015.9 975.8
22 16.07 СВ 1
{2}
н/о н/о +15.0 +13.6 91 +16 +16 1016.3 976.0
23 16.07 СВ 1
{2}
н/о н/о +14.1 +12.9 92 +15 +15 1016.6 976.2
00 17.07 В 2
{3}
н/о н/о +13.6 +12.4 92 +13 +13 1016.6 976.1
01 17.07 В 1
{2}
н/о н/о +13.9 +12.1 89 +14 +14 1016.4 976.0
02 17.07 В 1
{2}
н/о н/о +12.6 +11.9 95 +12 +12 1016.4 975.8
03 17.07 В 1
{2}
н/о н/о +12.0 +11.4 96 +13 +13 1016.3 975.6
04 17.07 В 1
{2}
н/о н/о +12.0 +11.6 97 +12 +12 1016.2 975.5
05 17.07 В 1
{2}
н/о н/о +12.8 +12.2 96 +13 +13 1015.8 975.2
06 17.07 В 2
{3}
н/о н/о +15.2 +12.5 84 +15 +15 1015.3 975.1 +11.4
07 17.07 штиль 0
{2}
н/о н/о +17.7 +12.7 73 +18 +18 1014.8 975.0
08 17.07 С 1
{2}
н/о н/о +20.5 +13.2 63 +24 +24 комфорт 1014.3 974.9
09 17.07 ЮЗ 1
{3}
н/о н/о +22.2 +12.8 55 +25 +25 комфорт 1014.1 974.9
10 17.07 ЮЗ 2
{4}
н/о н/о +23.8 +13.2 51 +26 +26 жарко 1013.5 974.6
11 17.07 СЗ 3
{6}
н/о н/о +24.7 +13.2 49 +27 +27 жарко 1013.2 974.4
12 17.07 З 3
{6}
н/о н/о +25.5 +9.8 37 +26 +26 жарко 1012.8 974.1
13 17.07 СЗ 3
{7}
н/о н/о +26.3 +9.5 35 +27 +27 жарко 1012.1 973.6
14 17.07 З 4
{7}
н/о н/о +27.0 +7.3 29 +27 +27 жарко 1011.6 973.2
15 17.07 З 3
{7}
н/о н/о +27.1 +8.0 30 +27 +27 жарко 1011.3 972.9
16 17.07 СЗ 4
{6}
н/о н/о +26.6 +5.3 26 +26 +26 жарко 1010.9 972.4
17 17.07 СЗ 2
{5}
н/о н/о +26.4 +6.1 27 +26 +26 жарко 1010.6 972.1
18 17.07 З 2
{7}
н/о н/о +24.9 +5.8 29 +25 +25 комфорт 1011.0 972.3 +27.2
19 17.07 З 1
{3}
н/о н/о +21.3 +8.6 44 +22 +22 комфорт 1011.6 972.4
20 17.07 штиль 0
{2}
н/о н/о +17.2 +10.9 66 +17 +17 1012.5 972.7
21 17.07 В 1
{3}
н/о н/о +15.7 +10.4 71 +17 +17 1012.9 972.9
22 17.07 штиль 0
{1}
н/о н/о +14.9 +10.2 73 +15 +15 1013.4 973.2
23 17.07 В 1
{1}
н/о н/о +13.4 +10.9 85 +14 +14 1013.8 973.4
00 18.07 В 1
{3}
н/о н/о +12.8 +10.4 85 +14 +14 1014.1 973.6
01 18.07 СВ 1
{2}
н/о н/о +12.3 +10.1 86 +13 +13 1014.3 973.7
02 18.07 В 1
{2}
н/о н/о +12.4 +10.4 88 +13 +13 1014.1 973.5
03 18.07 ЮВ 1
{2}
н/о н/о +12.3 +10.7 90 +12 +12 1014.0 973.4
04 18.07 В 1
{1}
н/о н/о +12.1 +10.5 90 +13 +13 1014.1 973.5
05 18.07 В 1
{2}
н/о н/о +12.2 +11.0 92 +12 +12 1014.1 973.5
06 18.07 ЮВ 1
{3}
н/о н/о +14.3 +12.2 87 +15 +15 1014.1 973.8 +11.8
07 18.07 штиль 0
{4}
н/о н/о +16.9 +12.0 73 +17 +17 1014.1 974.2
08 18.07 штиль 0
{2}
н/о н/о +19.9 +12.9 64 +21 +21 комфорт 1013.8 974.3
09 18.07 З 1
{6}
н/о н/о +22.8 +10.6 46 +25 +25 комфорт 1013.4 974.3
10 18.07 ЮЗ 2
{6}
н/о н/о +24.8 +10.0 39 +26 +26 жарко 1013.1 974.3
11 18.07 З 3
{7}
н/о н/о +26.1 +9.5 35 +27 +27 жарко 1012.7 974.1
12 18.07 СЗ 1
{7}
н/о н/о +26.3 +10.4 37 +27 +27 жарко 1012.4 973.8
13 18.07 СВ 2
{5}
н/о н/о +27.1 +9.4 33 +27 +27 жарко 1011.8 973.4
14 18.07 СЗ 3
{4}
н/о н/о +26.1 +10.0 36 +27 +27 жарко 1011.9 973.3
15 18.07 СЗ 2
{5}
н/о н/о +26.3 +10.9 38 +27 +27 жарко 1011.5 973.0
16 18.07 З 1
{2}
н/о н/о +27.1 +9.8 34 +28 +28 жарко 1011.2 972.8
17 18.07 штиль 0
{3}
н/о н/о +25.7 +11.7 42 +27 +27 жарко 1011.5 972.9
18 18.07 СЗ 1
{5}
н/о н/о +23.3 +14.8 59 +27 +27 душно 1012.0 973.1 +27.1
19 18.07 З 1
{2}
н/о н/о +21.5 +14.5 64 +24 +24 комфорт 1013.0 973.8
20 18.07 СЗ 1
{3}
н/о н/о +21.0 +14.2 65 +25 +25 комфорт 1013.8 974.5
21 18.07 штиль 0
{3}
н/о н/о +19.8 +15.0 74 +22 +22 комфорт 1014.2 974.7
22 18.07 С 1
{1}
н/о н/о +19.0 +15.5 80 +22 +22 комфорт 1014.6 975.0
23 18.07 штиль 0
{1}
н/о н/о +19.3 +14.1 72 +21 +21 комфорт 1014.9 975.3
00 19.07 З 1
{3}
н/о н/о +18.1 +14.4 79 +20 +20 1015.2 975.4
01 19.07 штиль 0
{1}
н/о н/о +16.9 +14.3 85 +17 +17 1015.6 975.6
02 19.07 СЗ 1
{2}
н/о н/о +17.0 +13.5 80 +18 +18 1015.6 975.6
03 19.07 СЗ 1
{2}
н/о н/о +16.4 +13.9 85 +18 +18 1016.0 975.9
04 19.07 С 1
{2}
н/о н/о +16.1 +13.5 85 +17 +17 1016.2 976.1
05 19.07 СЗ 1
{2}
н/о н/о +17.1 +12.7 75 +18 +18 1016.4 976.4
06 19.07 СЗ 1
{2}
н/о н/о +17.6 +14.0 79 +19 +19 1016.6 976.7 +16.1
07 19.07 СЗ 1
{2}
н/о н/о +20.7 +14.5 68 +25 +25 комфорт 1016.5 977.0
08 19.07 СЗ 3
{6}
н/о н/о +22.0 +13.2 57 +25 +25 комфорт 1016.4 977.1
09 19.07 З 1
{6}
н/о н/о +23.1 +13.4 54 +26 +26 жарко 1016.3 977.2
10 19.07 СЗ 3
{6}
н/о н/о +24.3 +13.5 51 +27 +27 жарко 1015.9 976.9
11 19.07 З 3
{6}
н/о н/о +25.6 +12.8 45 +27 +27 жарко 1015.4 976.6
12 19.07 СЗ 3
{7}
н/о н/о +25.1 +13.6 49 +27 +27 жарко 1015.2 976.4
13 19.07 СЗ 4
{7}
н/о н/о +26.1 +13.4 45 +28 +28 жарко 1014.8 976.1
14 19.07 З 3
{7}
н/о н/о +26.5 +13.4 44 +28 +28 жарко 1014.4 975.8
15 19.07 СЗ 3
{7}
н/о н/о +26.4 +13.6 45 +28 +28 жарко 1014.1 975.5
16 19.07 СЗ 2
{7}
н/о н/о +26.5 +13.8 46 +29 +29 жарко 1013.8 975.2
17 19.07 СЗ 3
{5}
н/о н/о +26.1 +13.7 46 +28 +28 жарко 1013.6 975.0
18 19.07 СЗ 2
{7}
н/о н/о +25.2 +14.2 50 +28 +28 жарко 1013.5 974.8 +26.8
19 19.07 штиль 0
{3}
н/о н/о +22.3 +15.6 66 +26 +26 жарко 1014.1 974.9
20 19.07 С 1
{1}
н/о н/о +19.5 +15.3 77 +23 +23 комфорт 1015.0 975.4
21 19.07 В 1
{3}
н/о н/о +18.6 +14.7 78 +21 +21 комфорт 1015.4 975.7
22 19.07 штиль 0
{1}
н/о н/о +17.2 +14.7 85 +17 +17 1015.8 975.9
23 19.07 В 1
{2}
н/о н/о +16.9 +14.2 84 +18 +18 1015.9 975.9
00 20.07 В 2
{3}
н/о н/о +16.4 +14.0 86 +17 +17 1015.5 975.5

 

Местоположение метеостанции Мёлин (Швейцария): широта 47.58 долгота 7.88 высота над уровнем моря 340 м.

В архиве по умолчанию представлена погода в Мёлине за последнюю неделю. Архивные данные за месяц целиком и за предыдущие месяцы, начиная с января 2011 года, Вы можете получить, выбрав интересующий диапазон дат из раскрывающегося списка и нажав кнопку "Ввод!".


*Определитесь, кто Вы:
робот инопланетянин человек

Внимание! Время в таблицах - всемирное. Для получения местного времени необходимо прибавить поправку, которая равна 1 ч.

Смотрите также архив погоды в соседних городах и на ближайших метеорологических станциях:

Погода в Рейнфельдене (Швейцария) (7 км)
Погода в Лауфенбурге (Швейцария) (13 км)
Погода в Рюненберге (Швейцария) (17 км)
Погода в Лайбштадте (Швейцария) (23 км)
Погода в Базель Биннингене (Швейцария) (23 км)
Погода в Бругг-Вилдегге (Швейцария) (25 км)
Погода в Госгене (Швейцария) (25 км)
Погода на Бецнау (Швейцария) (26 км)
Погода в Букс-Зуре (Швейцария) (27 км)
Погода в Институте Пауля Шеррера (Швейцария) (27 км)

Пояснения к столбцам:

Ветер - указаны скорость ветра в м/с - средняя за 10 мин, порывы в срок и между сроками (в фигурных скобках) и направление, откуда дует ветер: С - северный, СВ - северо-восточный, В - восточный, ЮВ - юго-восточный, Ю - южный, ЮЗ - юго-западный, З - западный, СЗ - северо-западный.
Видимость - горизонтальная дальность видимости в метрах или километрах. При видимости от 1 до 10 км при отсутствии осадков обычно наблюдается дымка, при ухудшении видимости до 1 км и менее - туман. В сухую погоду видимость может ухудшаться дымом, пылью или мглою.
Явления - указаны атмосферные явления, наблюдавшиеся в срок или в последний час перед сроком; фигурными скобками обозначены явления, наблюдавшиеся между сроками (за 1-3 часа до срока); квадратными скобками обозначены град или гололедные отложения с указанием их диаметра в мм.
Облачность - указаны через наклонную черту общая и нижняя облачность в баллах и высота нижней границы облаков в метрах; квадратными скобками обозначены формы облаков: Ci - перистые, Cs - перисто-слоистые, Cc - перисто-кучевые, Ac - высококучевые, As - высокослоистые, Sc - слоисто-кучевые, Ns - слоисто-дождевые, Cu - кучевые, Cb - кучево-дождевые. Подробнее классификацию облаков см. в Атласе облаков (PDF).
T - Температура воздуха - температура, измеренная на высоте 2 м над землей.
Td - Температура точки росы - температура, при понижении до которой содержащийся в воздухе водяной пар достигнет насыщения.
f - Относительная влажность воздуха - влажноcть воздуха, измеренная на высоте 2 м над землей.
Te - Эффективная температура - температура, которую ощущает одетый по сезону человек в тени. Характеристика душности погоды. При расчете учитывается влияние влажности воздуха и скорости ветра на теплоощущения человека.
Tes - Эффективная температура на солнце - температура, которую ощущает человек, с поправкой на солнечный нагрев. Характеристика знойности погоды. Зависит от высоты солнца над горизонтом, облачности и скорости ветра. Ночью, в пасмурную погоду, а также при ветре 12 м/с и более поправка равна нулю.
P - Атмосферное давление - приведенное к уровню моря атмосферное давление.
Po - Атмосферное давление - измеренное на уровне метеостанции атмосферное давление.
Tmin - Минимальная температура - минимум температуры воздуха на высоте 2 м над землей.
Tmax - Максимальная температура - максимум температуры воздуха на высоте 2 м над землей.
R - Количество осадков - Количество выпавших осадков за период времени, мм. При наведении курсора мыши на число - период времени, за который выпало указанное количество осадков.
R24 - Количество осадков - Количество выпавших осадков за 24 часа, мм.
S - Снежный покров - Высота снежного покрова, см. При наведении курсора мыши на число - состояние снежного покрова и степень покрытия местности в баллах.